Regional Weather Roundup
Issued by NWS

Home | Current Version | Previous Version | Text Only | Print | Product List | Glossary Off
Versions: 1 2 3 4 5 6 7 8 9 10 11 12 13 14 15 16 17 18 19 20 21 22 23 24 25 26 27 28 29 30 31 32 33 34 35 36 37 38 39 40 41 42 43 44 45 46 47 48 49 50

000
ASUS43 KTOP 171659
RWRKS

WEATHER ROUNDUP FOR KANSAS
NATIONAL WEATHER SERVICE GOODLAND KS
1100 AM CST WED DEC 17 2014

NOTE:  "FAIR" INDICATES FEW OR NO CLOUDS BELOW 12,000 FEET WITH NO
SIGNIFICANT WEATHER AND/OR OBSTRUCTIONS TO VISIBILITY.

KSZ001>006-013>018-027>032-041>047-171800-
NORTHWEST KANSAS

CITY           SKY/WX    TMP DP  RH WIND       PRES   REMARKS
GOODLAND       FOG       23  23 100 E9        30.09R VSB 1/4
HAYS           CLOUDY    28  16  59 E13       30.21S WCI  18
HILL CITY      CLOUDY    24  21  88 E13       30.22S WCI  12
RUSSELL        CLOUDY    27  23  85 E13       30.22S WCI  16
$$

KSZ061>065-074>080-084>089-171800-
SOUTHWEST KANSAS

CITY           SKY/WX    TMP DP  RH WIND       PRES   REMARKS
DODGE CITY     MOSUNNY   35  25  66 S18       30.13S WCI  24
ELKHART          N/A     41  26  55 S9          N/A
GARDEN CITY    PTSUNNY   34  27  75 S16G24    30.09R WCI  24
GREAT BEND     CLOUDY    32  23  69 SE14      30.21F WCI  22
LIBERAL        PTSUNNY   43  28  56 S16       30.08F
$$

KSZ066>073-081>083-090>101-171800-
SOUTHEAST KANSAS

CITY           SKY/WX    TMP DP  RH WIND       PRES   REMARKS
CHANUTE        CLOUDY    28  24  85 E7        30.33F
COFFEYVILLE    CLOUDY    31  26  82 E8        30.32F
HUTCHINSON     CLOUDY    30  24  78 E10       30.26S WCI  21
MEDICINE LODGE   N/A     33  27  78 SE10      30.21F WCI  25
NEWTON         CLOUDY    27  19  74 SE8       30.29R
PARSONS        CLOUDY    31  26  82 E6        30.33F
WICHITA INTL   CLOUDY    32  24  72 E9        30.27S
WICHITA JABRA    N/A     29  24  82 E6        30.28R
WINFIELD       CLOUDY    32  25  75 SE10      30.29F WCI  24
$$

KSZ007>012-019>026-033>040-048>060-102>105-171800-
NORTHEAST KANSAS

CITY           SKY/WX    TMP DP  RH WIND       PRES   REMARKS
CONCORDIA      CLOUDY    25  19  78 E8        30.29F
EMPORIA        CLOUDY    26  23  88 SE7       30.31S
LAWRENCE       CLOUDY    26  19  74 S3        30.36F
MANHATTAN      CLOUDY    25  17  72 E7        30.33F
OLATHE IND     CLOUDY    27  21  78 S5        30.34F
OLATHE EXE     CLOUDY    28  22  78 MISG      30.33F
SALINA         CLOUDY    28  22  78 E8        30.30S
TOPEKA BILLARD CLOUDY    27  18  69 CALM      30.36F
TOPEKA FORBES  CLOUDY    27  19  72 E5        30.34S
$$


USA.gov is the U.S. government's official web portal to all federal, state and local government web resources and services.